Date String (YYYY-MM-DD hh:mm:ss) UTC,Instrument flags,Ambient pressure (hPa),Sample flow (lpm),Bypass flow (lpm),Sample temperature (°C),Ambient temperature (°C),ASC tube jacket temperature (°C),LED temperature (°C),Box temperature (°C),Sample RH (%),Span deviation,Mass concentration (μg/m³),Mass concentration (μg/m³),Mass concentration (μg/m³)
DateTimeUTC,F1_M11,P_M11,Q1_M11,Q2_M11,T1_M11,T2_M11,T3_M11,T4_M11,T5_M11,U1_M11,ZSPAN_M11,X0_M11,X2_M11,X1_M11
2022-09-13 08:00:00,,0826.7,5.00,0.00,30.2,28.6,00.0,39.1,32.0,09.6,0000.5,0012.92,0009.10,0008.50
2022-09-13 08:01:00,,0826.7,5.01,0.00,30.2,28.6,00.0,39.1,32.0,09.6,0001.5,0012.64,0009.09,0008.50
2022-09-13 08:02:00,,0826.7,4.99,0.00,30.2,28.6,00.0,39.1,32.0,09.4,0002.0,0012.82,0009.07,0008.50
2022-09-13 08:03:00,,0826.7,5.01,0.00,30.2,28.6,00.0,39.1,32.0,09.7,0002.2,0013.08,0009.06,0008.48
2022-09-13 08:04:00,,0826.7,4.99,0.00,30.2,28.6,00.0,39.1,31.9,09.6,0002.7,0013.28,0009.04,0008.47
2022-09-13 08:05:00,,0826.7,4.99,0.00,30.2,28.5,00.0,39.1,31.9,09.6,0003.0,0014.32,0009.02,0008.44
2022-09-13 08:06:00,,0826.7,5.00,0.00,30.2,28.6,00.0,39.1,31.9,09.5,0003.3,0014.74,0009.01,0008.42
2022-09-13 08:07:00,,0826.7,5.02,0.00,30.2,28.5,00.0,39.0,31.9,09.5,0003.4,0014.86,0008.98,0008.41
2022-09-13 08:08:00,,0826.7,5.00,0.00,30.2,28.5,00.0,39.0,31.9,09.6,0003.4,0015.04,0008.95,0008.40
2022-09-13 08:09:00,,0826.7,5.00,0.00,30.2,28.5,00.0,39.0,31.9,09.7,0003.3,0015.01,0008.93,0008.40
2022-09-13 08:10:00,,0826.7,5.01,0.00,30.1,28.5,00.0,39.0,31.8,09.7,0003.5,0015.09,0008.92,0008.40
2022-09-13 08:11:00,,0826.7,5.00,0.00,30.1,28.5,00.0,39.0,31.8,09.7,0003.7,0015.66,0008.96,0008.41
2022-09-13 08:12:00,,0826.7,5.00,0.00,30.1,28.5,00.0,39.0,31.8,09.5,0003.6,0016.02,0008.92,0008.40
2022-09-13 08:13:00,,0826.7,5.00,0.00,30.1,28.4,00.0,39.0,31.8,09.7,0003.9,0015.62,0008.90,0008.40
2022-09-13 08:14:00,,0826.7,5.00,0.00,30.1,28.5,00.0,39.0,31.8,10.1,0003.8,0015.49,0008.92,0008.38
2022-09-13 08:15:00,,0826.7,4.99,0.00,30.1,28.5,00.0,39.0,31.8,09.8,0003.4,0015.38,0008.94,0008.37
2022-09-13 08:16:00,,0826.6,5.01,0.00,30.1,28.5,00.0,39.0,31.7,09.6,0003.4,0014.21,0008.89,0008.35
2022-09-13 08:17:00,,0826.7,5.00,0.00,30.1,28.4,00.0,39.0,31.7,09.6,0003.2,0013.87,0008.84,0008.33
2022-09-13 08:18:00,,0826.7,5.00,0.00,30.1,28.5,00.0,39.0,31.7,09.6,0002.8,0014.03,0008.84,0008.31
2022-09-13 08:19:00,,0826.6,5.01,0.00,30.1,28.5,00.0,38.9,31.8,09.5,0002.3,0014.07,0008.82,0008.30
2022-09-13 08:20:00,,0826.7,5.00,0.00,30.1,28.5,00.0,38.9,31.8,09.4,0002.1,0014.10,0008.82,0008.27
2022-09-13 08:21:00,,0826.7,5.00,0.00,30.1,28.5,00.0,38.9,31.8,09.6,0002.0,0014.08,0008.79,0008.25
2022-09-13 08:22:00,,0826.7,5.02,0.00,30.1,28.5,00.0,38.9,31.8,09.5,0001.6,0013.48,0008.73,0008.20
2022-09-13 08:23:00,,0826.6,4.99,0.00,30.1,28.5,00.0,38.9,31.8,09.3,0001.5,0013.31,0008.76,0008.19
2022-09-13 08:24:00,,0826.7,5.00,0.00,30.1,28.5,00.0,38.9,31.8,09.4,0001.0,0013.47,0008.77,0008.18
2022-09-13 08:25:00,,0826.7,5.00,0.00,30.1,28.5,00.0,38.9,31.8,09.5,0001.2,0013.59,0008.74,0008.17
2022-09-13 08:26:00,,0826.7,5.00,0.00,30.1,28.5,00.0,38.9,31.8,09.5,0002.3,0013.43,0008.69,0008.16
2022-09-13 08:27:00,,0826.7,5.01,0.00,30.1,28.5,00.0,38.9,31.8,09.5,0002.3,0013.48,0008.71,0008.16
2022-09-13 08:28:00,,0826.6,4.99,0.00,30.1,28.5,00.0,38.9,31.8,09.5,0002.5,0013.73,0008.74,0008.15
2022-09-13 08:29:00,,0826.6,4.99,0.00,30.1,28.5,00.0,38.9,31.8,09.5,0002.8,0013.83,0008.77,0008.16
2022-09-13 08:30:00,,0826.6,5.01,0.00,30.1,28.5,00.0,38.9,31.7,09.4,0003.0,0013.85,0008.76,0008.15
2022-09-13 08:31:00,,0826.7,4.99,0.00,30.0,28.5,00.0,38.9,31.7,09.5,0003.6,0013.68,0008.73,0008.15
2022-09-13 08:32:00,,0826.7,5.00,0.00,30.0,28.5,00.0,38.9,31.7,09.5,0003.7,0013.50,0008.69,0008.14
2022-09-13 08:33:00,,0826.7,5.00,0.00,30.0,28.4,00.0,38.9,31.8,09.5,0003.5,0013.47,0008.68,0008.14
2022-09-13 08:34:00,,0826.7,5.00,0.00,30.0,28.5,00.0,38.9,31.8,09.5,0003.3,0013.32,0008.66,0008.15
2022-09-13 08:35:00,,0826.7,5.00,0.00,30.0,28.5,00.0,38.9,31.7,09.5,0003.6,0013.36,0008.67,0008.14
2022-09-13 08:36:00,,0826.7,5.01,0.00,30.0,28.5,00.0,38.9,31.8,09.6,0003.4,0013.57,0008.69,0008.15
2022-09-13 08:37:00,,0826.7,4.99,0.00,30.0,28.5,00.0,38.9,31.8,09.6,0002.3,0013.76,0008.72,0008.17
2022-09-13 08:38:00,,0826.7,5.00,0.00,30.1,28.6,00.0,38.9,31.8,09.6,0002.0,0013.90,0008.71,0008.18
2022-09-13 08:39:00,,0826.7,5.02,0.00,30.1,28.6,00.0,38.9,31.8,09.5,0001.8,0013.66,0008.70,0008.19
2022-09-13 08:40:00,,0826.7,4.99,0.00,30.1,28.6,00.0,38.9,31.8,09.5,0001.9,0014.00,0008.71,0008.18
2022-09-13 08:41:00,,0826.7,5.00,0.00,30.1,28.6,00.0,38.9,31.8,09.5,0002.7,0013.98,0008.71,0008.19
2022-09-13 08:42:00,,0826.7,5.01,0.00,30.1,28.6,00.0,38.9,31.8,09.5,0003.3,0014.27,0008.73,0008.20
2022-09-13 08:43:00,,0826.6,4.99,0.00,30.1,28.6,00.0,38.9,31.8,09.6,0003.3,0014.49,0008.74,0008.19
2022-09-13 08:44:00,,0826.6,5.00,0.00,30.1,28.6,00.0,38.9,31.9,09.6,0003.7,0014.51,0008.74,0008.18
2022-09-13 08:45:00,,0826.7,5.00,0.00,30.1,28.6,00.0,38.9,31.8,09.6,0003.7,0014.62,0008.74,0008.17
2022-09-13 08:46:00,,0826.6,4.99,0.00,30.1,28.5,00.0,38.9,31.8,09.5,0003.2,0014.33,0008.72,0008.18
2022-09-13 08:47:00,,0826.7,5.01,0.00,30.1,28.6,00.0,38.9,31.8,09.4,0002.9,0013.94,0008.71,0008.17
2022-09-13 08:48:00,,0826.6,4.99,0.00,30.1,28.6,00.0,38.9,31.8,09.4,0003.1,0013.81,0008.72,0008.18
2022-09-13 08:49:00,,0826.7,5.01,0.00,30.1,28.6,00.0,38.9,31.8,09.4,0003.4,0013.70,0008.74,0008.17
2022-09-13 08:50:00,,0826.7,4.99,0.00,30.1,28.6,00.0,38.9,31.8,09.5,0003.2,0013.65,0008.76,0008.18
2022-09-13 08:51:00,,0826.6,5.01,0.00,30.1,28.6,00.0,38.9,31.8,09.5,0003.1,0013.10,0008.75,0008.19
2022-09-13 08:52:00,,0826.7,4.99,0.00,30.1,28.5,00.0,38.9,31.8,09.5,0002.2,0013.03,0008.77,0008.21
2022-09-13 08:53:00,,0826.7,5.01,0.00,30.1,28.5,00.0,38.9,31.8,09.4,0001.7,0013.14,0008.74,0008.21
2022-09-13 08:54:00,,0826.6,5.00,0.00,30.1,28.5,00.0,38.9,31.8,09.5,0001.2,0013.87,0008.75,0008.23
2022-09-13 08:55:00,,0826.7,5.00,0.00,30.1,28.5,00.0,38.9,31.8,09.4,0001.0,0014.05,0008.79,0008.25
2022-09-13 08:56:00,,0826.7,5.01,0.00,30.0,28.5,00.0,38.9,31.8,09.5,0001.0,0014.04,0008.79,0008.26
2022-09-13 08:57:00,,0826.7,5.01,0.00,30.0,28.4,00.0,38.9,31.7,09.5,0000.6,0014.10,0008.81,0008.27
2022-09-13 08:58:00,,0826.7,5.01,0.00,30.0,28.3,00.0,38.9,31.7,09.5,0000.5,0014.09,0008.82,0008.27
2022-09-13 08:59:00,,0826.7,4.99,0.00,30.0,28.3,00.0,38.9,31.7,09.5,0000.7,0014.12,0008.80,0008.26
